Regional Weather Roundup
Issued by NWS Jackson, KY

Home | Current Version | Previous Version | Graphics & Text | Print | Product List | Glossary On
Versions: 1 2 3 4 5 6 7 8 9 10 11 12 13 14 15 16 17 18 19 20 21 22 23 24 25 26 27 28 29 30 31 32 33 34 35 36 37 38 39 40 41 42 43 44 45 46 47 48 49 50
527
ASUS43 KJKL 282310
RWRJKL

EAST KENTUCKY HOURLY WEATHER ROUNDUP
NATIONAL WEATHER SERVICE JACKSON KY
700 PM EDT FRI APR 28 2017

NOTE: "FAIR" INDICATES FEW OR NO CLOUDS BELOW 12,000 FEET WITH
NO SIGNIFICANT WEATHER AND/OR OBSTRUCTIONS TO VISIBILITY.

* THESE REPORTS ARE NOT UNDER NWS QUALITY CONTROL AND MAY NOT
  REPORT WEATHER SUCH AS PRECIPITATION AND FOG.

KYZ079-080-083-085-087-088-110-112-115-119-120-290000
...EASTERN KENTUCKY...

CITY           SKY/WX    TMP DP  RH WIND       PRES   REMARKS
JACKSON        PTSUNNY   79  57  46 CALM      29.95R
LONDON         MOSUNNY   79  59  50 S13G20    29.95S
SOMERSET*      CLOUDY    77  61  57 S5        29.94S
MONTICELLO*    PTSUNNY   78  65  63 VRB6      29.93F
WILLIAMSBURG*  PTCLDY    77  63  61 S7        29.97R
MIDDLESBORO*   MOSUNNY   80  63  57 W8        29.97S
HARLAN APT*    PTCLDY    79  59  50 SW10      29.97R
PIKE CO APT*   PTSUNNY   81  50  34 CALM      29.95S
BIG SANDY APT* CLOUDY    83  53  34 S5        29.93S
MOREHEAD APT*  CLOUDY    79  54  41 CALM      29.92F
$$

KYZ035-036-041-042-044-050-067-078-099-290000
...CENTRAL KENTUCKY...

CITY           SKY/WX    TMP DP  RH WIND       PRES   REMARKS
MT STERLING*   PTSUNNY   77  61  57 W3        29.92S
FLEMING/MASON* CLOUDY    74  56  53 SE3       29.90F
DANVILLE*      CLOUDY    77  61  57 S8        29.92R
LEXINGTON      CLOUDY    78  60  53 S13       29.89F
FRANKFORT      CLOUDY    77  61  57 SE6       29.85S
LOUISVILLE     CLOUDY    77  63  61 S12       29.83S
GLASGOW*       PTSUNNY   77  64  65 S9        29.88S
BOWLING GREEN  CLOUDY    78  69  73 S7        29.87R
$$

KYZ091>093-OHZ055-061-077-WVZ005-015-034-035-042-290000
...SOUTHERN OHIO/WEST VIRGINIA...

CITY           SKY/WX    TMP DP  RH WIND       PRES   REMARKS
COVINGTON      LGT RAIN  71  57  61 SE7       29.86F
COLUMBUS       CLOUDY    69  52  54 E9        29.92F
DAYTON         LGT RAIN  63  55  75 N12       29.91F
WILMINGTON     CLOUDY    67  58  72 E6        29.89F
HUNTINGTON     SUNNY     81  54  39 E5        29.91F
CHARLESTON     PTSUNNY   82  49  31 N3        29.93S
PINEVILLE*     PTSUNNY   79  50  36 MISG      30.01S
BECKLEY        MOSUNNY   78  49  35 SE7       30.02R
BLUEFIELD      SUNNY     75  53  46 S8G22     30.05S
LOGAN CO APT*  MOCLDY    82  43  24 SW3       29.95S
$$

VAZ002-007-008-TNZ017-027-036-066-071-290000
...SOUTHWEST VIRGINIA/EAST TENNESSEE...

CITY           SKY/WX    TMP DP  RH WIND       PRES   REMARKS
WISE*          PTSUNNY   79  52  38 S6        30.04S
JONESVILLE*      N/A     81  63  54 SW7       29.99R
ABINGDON*      MOSUNNY   82  55  38 CALM      30.00S
BRISTOL        MOSUNNY   81  59  47 SW3       29.97S
MORRISTOWN*    PTCLDY    82  66  57 VRB5      29.97R
SEVIERVILLE*   CLEAR     82  64  54 NW5       29.95R
KNOXVILLE      MOSUNNY   82  63  52 SW14      29.95R
LAFOLLETTE*    CLOUDY    81  64  57 SW5       29.99S
OAK RIDGE      PTSUNNY   80  65  59 VRB3      29.97S
CROSSVILLE     CLOUDY    76  63  64 S8        30.00S
NASHVILLE      PTSUNNY   82  67  60 S14G21    29.88R
$$

...KEY TO REMARKS...
VSB - VISIBILITY IN MILES
WCI - WIND CHILL INDEX
HX  - HEAT INDEX

$$




USA.gov is the U.S. government's official web portal to all federal, state and local government web resources and services.